This is the latest recevied weather packets stored in our database for station/object K8RRT. If no packets are shown the sender has not sent any weather packets the latest 10 day(s).
| Time | Temp. | Humidity | Pressure | Rain* | Wind** | Luminosity | Snow |
|---|---|---|---|---|---|---|---|
| 1788395483 | 27.22° C | 89% | 1012.5 hPa | 0 mm | - | 0 W/m² | - |
| 1788395178 | 27.78° C | 89% | 1012.4 hPa | 0 mm | - | 0 W/m² | - |
| 1788394872 | 27.78° C | 89% | 1012.4 hPa | 0 mm | - | 0 W/m² | - |
| 1788394567 | 28.33° C | 88% | 1012.6 hPa | 0 mm | - | 0 W/m² | - |
| 1788394261 | 28.33° C | 87% | 1012.3 hPa | 0 mm | - | 0 W/m² | - |
| 1788393957 | 28.33° C | 86% | 1012.3 hPa | 0 mm | - | 0 W/m² | - |
| 1788393656 | 28.33° C | 85% | 1012.4 hPa | 0 mm | - | 1 W/m² | - |
| 1788393355 | 28.89° C | 86% | 1012.4 hPa | 0 mm | - | 3 W/m² | - |
| 1788393050 | 28.89° C | 85% | 1012.4 hPa | 0 mm | - | 5 W/m² | - |
| 1788392745 | 28.89° C | 83% | 1012.1 hPa | 0 mm | - | 8 W/m² | - |
| 1788392443 | 29.44° C | 84% | 1012.3 hPa | 0 mm | - | 11 W/m² | - |
| 1788392138 | 29.44° C | 83% | 1012.5 hPa | 0 mm | - | 15 W/m² | - |
| 1788391833 | 30.56° C | 81% | 1012.3 hPa | 0 mm | - | 20 W/m² | - |
| 1788391532 | 30.56° C | 77% | 1012.2 hPa | 0 mm | - | 23 W/m² | - |
| 1788391226 | 31.11° C | 77% | 1012.3 hPa | 0 mm | - | 28 W/m² | - |
| 1788390921 | 31.67° C | 74% | 1012.7 hPa | 0 mm | - | 33 W/m² | - |
| 1788390621 | 31.67° C | 74% | 1012.4 hPa | 0 mm | - | 35 W/m² | - |
| 1788390315 | 32.22° C | 70% | 1012.5 hPa | 0 mm | - | 39 W/m² | - |
| 1788390015 | 32.22° C | 70% | 1012.5 hPa | 0 mm | - | 42 W/m² | - |
| 1788389710 | 32.78° C | 68% | 1012.6 hPa | 0 mm | - | 64 W/m² | - |
| 1788389404 | 32.78° C | 69% | 1012.5 hPa | 0 mm | - | 56 W/m² | - |
| 1788389103 | 33.33° C | 67% | 1012.4 hPa | 0 mm | - | 54 W/m² | - |
| 1788388799 | 33.89° C | 65% | 1012.4 hPa | 0 mm | - | 57 W/m² | - |
| 1788388489 | 34.44° C | 61% | 1012.5 hPa | 0 mm | - | 78 W/m² | - |
| 1788388188 | 34.44° C | 62% | 1012.5 hPa | 0 mm | - | 129 W/m² | - |
* Rain latest hour (hover to see other rain measurements)
** Current wind speed in m/s (hover to see current wind gust speed)